Location: Absher
(46.5583°N, 107.9840°W)
Time: 08:48:54
(UTC+00:00)

TIGRISAT - Pass Details

Date: 06 April 2023
Orbit: 599 x 682 km, 97.7° (Epoch: 28 May)

Event Time Altitude Azimuth Distance (km) Brightness Sun altitude
Rises 02:12:20 0° 0° (N) 3,060 ? -5.2°
Reaches altitude 10° 02:15:02 10° 345° (NNW) 2,138 ? -5.7°
Maximum altitude 02:18:28 21° 297° (WNW) 1,531 ? -6.2°
Drops below altitude 10° 02:21:53 10° 250° (WSW) 2,112 ? -6.8°
Sets 02:24:33 0° 234° (SW) 3,011 ? -7.2°
